AFL783 UUDD-UMMS

Flight info

Callsign AFL783
Flight time 1h 19m
Altitude 320
Route UUDD SOTOG L736 ASKIL M863 RUHAL UMMS
Aircraft A321/M-S/L

Departure

Time 2026-05-06 13:29
Airport Domodedovo International Airport (UUDD)

Arrival

Time 2026-05-06 14:48
Airport Minsk National Airport (UMMS)
Time Latitude Longitude Altitude Speed Heading
2026-05-06 13:13 55.39716 37.90600 596 ft 0 kts 236°
2026-05-06 13:26 55.39713 37.90591 596 ft 5 kts 236°
2026-05-06 13:26 55.39673 37.90537 596 ft 8 kts 185°
2026-05-06 13:26 55.39615 37.90530 596 ft 8 kts 204°
2026-05-06 13:26 55.39571 37.90451 596 ft 9 kts 234°
2026-05-06 13:27 55.39546 37.90338 596 ft 10 kts 274°
2026-05-06 13:27 55.39589 37.90239 596 ft 6 kts 322°
2026-05-06 13:27 55.39592 37.90234 596 ft 0 kts 321°
2026-05-06 13:27 55.39600 37.90224 596 ft 1 kts 322°
2026-05-06 13:28 55.39613 37.90206 596 ft 2 kts 322°
2026-05-06 13:28 55.39646 37.90161 596 ft 24 kts 320°
2026-05-06 13:28 55.40054 37.89665 596 ft 116 kts 326°
2026-05-06 13:28 55.40940 37.88596 613 ft 187 kts 323°
2026-05-06 13:29 55.42065 37.87269 1285 ft 202 kts 324°
2026-05-06 13:29 55.43206 37.85952 2410 ft 200 kts 322°
2026-05-06 13:29 55.44307 37.84495 3415 ft 207 kts 321°
2026-05-06 13:29 55.45503 37.82944 3961 ft 225 kts 323°
2026-05-06 13:30 55.46849 37.81343 4202 ft 237 kts 323°
2026-05-06 13:30 55.48214 37.79672 4106 ft 237 kts 323°
2026-05-06 13:30 55.49554 37.78022 4055 ft 237 kts 323°
2026-05-06 13:30 55.50850 37.76247 4023 ft 236 kts 310°
2026-05-06 13:31 55.51591 37.73693 4017 ft 236 kts 281°
2026-05-06 13:31 55.51503 37.70827 4168 ft 244 kts 252°
2026-05-06 13:31 55.50682 37.68171 4929 ft 246 kts 240°
2026-05-06 13:31 55.49812 37.65671 5835 ft 242 kts 241°
2026-05-06 13:32 55.48947 37.63144 6658 ft 242 kts 241°
2026-05-06 13:32 55.48092 37.60636 7421 ft 243 kts 241°
2026-05-06 13:32 55.47219 37.58089 8208 ft 244 kts 242°
2026-05-06 13:32 55.46248 37.55687 8954 ft 248 kts 232°
2026-05-06 13:33 55.44967 37.53609 9603 ft 257 kts 222°
2026-05-06 13:33 55.43476 37.51701 9956 ft 271 kts 220°
2026-05-06 13:33 55.41929 37.49799 10016 ft 275 kts 219°
2026-05-06 13:33 55.40348 37.47866 10043 ft 276 kts 219°
2026-05-06 13:34 55.38790 37.45954 9956 ft 276 kts 219°
2026-05-06 13:34 55.37200 37.43986 10053 ft 281 kts 220°
2026-05-06 13:34 55.35617 37.42016 10754 ft 283 kts 220°
2026-05-06 13:34 55.34009 37.40017 11434 ft 284 kts 219°
2026-05-06 13:35 55.32368 37.38052 11794 ft 286 kts 217°
2026-05-06 13:35 55.30650 37.36299 11874 ft 293 kts 212°
2026-05-06 13:35 55.28769 37.34683 12085 ft 308 kts 208°
2026-05-06 13:35 55.26812 37.33065 12572 ft 317 kts 208°
2026-05-06 13:36 55.24807 37.31415 13237 ft 320 kts 208°
2026-05-06 13:36 55.22813 37.29777 13892 ft 322 kts 208°
2026-05-06 13:36 55.20770 37.28098 14488 ft 326 kts 208°
2026-05-06 13:36 55.18731 37.26419 14827 ft 329 kts 208°
2026-05-06 13:37 55.16651 37.24715 14895 ft 329 kts 208°
2026-05-06 13:37 55.14606 37.23039 14900 ft 328 kts 208°
2026-05-06 13:37 55.12530 37.21342 14899 ft 328 kts 208°
2026-05-06 13:37 55.10454 37.19642 14898 ft 329 kts 208°
2026-05-06 13:38 55.08396 37.17962 14923 ft 332 kts 208°
2026-05-06 13:38 55.06279 37.16244 15331 ft 337 kts 208°
2026-05-06 13:38 55.04183 37.14549 16027 ft 337 kts 207°
2026-05-06 13:38 55.02050 37.12826 16646 ft 339 kts 207°
2026-05-06 13:39 54.99901 37.11091 17213 ft 343 kts 207°
2026-05-06 13:39 54.97756 37.09363 17759 ft 346 kts 207°
2026-05-06 13:39 54.95561 37.07597 18326 ft 348 kts 207°
2026-05-06 13:39 54.93381 37.05845 18873 ft 351 kts 207°
2026-05-06 13:40 54.91152 37.04054 19420 ft 354 kts 207°
2026-05-06 13:40 54.88931 37.02276 19818 ft 357 kts 207°
2026-05-06 13:40 54.86664 37.00463 19901 ft 357 kts 207°
2026-05-06 13:40 54.84428 36.98674 19903 ft 357 kts 207°
2026-05-06 13:41 54.82162 36.96863 19905 ft 358 kts 207°
2026-05-06 13:41 54.79895 36.95055 19906 ft 358 kts 207°
2026-05-06 13:41 54.77670 36.93241 19904 ft 357 kts 210°
2026-05-06 13:41 54.75738 36.90601 19893 ft 353 kts 231°
2026-05-06 13:42 54.74507 36.87027 19910 ft 353 kts 251°
2026-05-06 13:42 54.74030 36.82814 20108 ft 362 kts 266°
2026-05-06 13:42 54.73866 36.78456 20323 ft 373 kts 267°
2026-05-06 13:42 54.73697 36.73902 20526 ft 384 kts 267°
2026-05-06 13:43 54.73513 36.69224 20721 ft 394 kts 266°
2026-05-06 13:43 54.73375 36.64496 20927 ft 403 kts 269°
2026-05-06 13:43 54.73375 36.59614 21321 ft 406 kts 271°
2026-05-06 13:43 54.73412 36.54784 21751 ft 408 kts 271°
2026-05-06 13:44 54.73454 36.49842 22130 ft 412 kts 271°
2026-05-06 13:44 54.73493 36.44936 22526 ft 414 kts 272°
2026-05-06 13:44 54.73530 36.39932 22947 ft 416 kts 272°
2026-05-06 13:44 54.73565 36.34966 23319 ft 419 kts 271°
2026-05-06 13:45 54.73598 36.29857 23723 ft 421 kts 271°
2026-05-06 13:45 54.73654 36.19716 24471 ft 427 kts 271°
2026-05-06 13:45 54.73680 36.14629 24802 ft 430 kts 271°
2026-05-06 13:46 54.73704 36.09428 25134 ft 433 kts 271°
2026-05-06 13:46 54.73725 36.04196 25466 ft 436 kts 271°
2026-05-06 13:46 54.73743 35.99011 25794 ft 438 kts 271°
2026-05-06 13:46 54.73760 35.93721 26124 ft 440 kts 271°
2026-05-06 13:47 54.73774 35.88481 26441 ft 442 kts 271°
2026-05-06 13:47 54.73786 35.83145 26813 ft 443 kts 271°
2026-05-06 13:47 54.73795 35.77890 27260 ft 442 kts 271°
2026-05-06 13:47 54.73802 35.72574 27714 ft 441 kts 271°
2026-05-06 13:48 54.73806 35.67266 28148 ft 440 kts 271°
2026-05-06 13:48 54.73808 35.61982 28569 ft 440 kts 271°
2026-05-06 13:48 54.73807 35.56767 28990 ft 439 kts 271°
2026-05-06 13:48 54.73804 35.51505 29449 ft 437 kts 271°
2026-05-06 13:49 54.73799 35.46215 29889 ft 436 kts 271°
2026-05-06 13:49 54.73792 35.40992 30304 ft 435 kts 271°
2026-05-06 13:49 54.73783 35.35790 30654 ft 436 kts 271°
2026-05-06 13:49 54.73770 35.30544 30945 ft 437 kts 270°
2026-05-06 13:50 54.73756 35.25254 31231 ft 438 kts 270°
2026-05-06 13:50 54.73730 35.19958 31518 ft 440 kts 270°
2026-05-06 13:50 54.73658 35.14701 31812 ft 441 kts 269°
2026-05-06 13:50 54.73568 35.09381 31887 ft 442 kts 269°
2026-05-06 13:51 54.73381 34.98788 31902 ft 442 kts 269°
2026-05-06 13:51 54.73190 34.88156 31905 ft 442 kts 269°
2026-05-06 13:52 54.72994 34.77600 31915 ft 441 kts 269°
2026-05-06 13:52 54.72789 34.66996 31906 ft 441 kts 269°
2026-05-06 13:53 54.72577 34.56472 31899 ft 441 kts 269°
2026-05-06 13:53 54.72355 34.45897 31898 ft 440 kts 269°
2026-05-06 13:54 54.72124 34.35345 31900 ft 439 kts 269°
2026-05-06 13:54 54.71883 34.24783 31897 ft 439 kts 268°
2026-05-06 13:55 54.71634 34.14234 31897 ft 440 kts 268°
2026-05-06 13:55 54.71375 34.03715 31895 ft 439 kts 268°
2026-05-06 13:56 54.71106 33.93222 31895 ft 439 kts 268°
2026-05-06 13:56 54.70717 33.82737 31901 ft 439 kts 264°
2026-05-06 13:57 54.70063 33.72266 31900 ft 438 kts 264°
2026-05-06 13:57 54.69392 33.61809 31901 ft 438 kts 264°
2026-05-06 13:58 54.68715 33.51410 31903 ft 438 kts 264°
2026-05-06 13:58 54.68024 33.40927 31902 ft 438 kts 264°
2026-05-06 13:59 54.67329 33.30503 31908 ft 438 kts 263°
2026-05-06 13:59 54.66620 33.20016 31905 ft 438 kts 263°
2026-05-06 14:00 54.65908 33.09614 31905 ft 437 kts 263°
2026-05-06 14:00 54.65192 32.99273 31903 ft 436 kts 263°
2026-05-06 14:01 54.64466 32.88914 31900 ft 436 kts 263°
2026-05-06 14:01 54.63731 32.78579 31899 ft 436 kts 263°
2026-05-06 14:02 54.62986 32.68212 31898 ft 436 kts 263°
2026-05-06 14:02 54.62228 32.57818 31896 ft 436 kts 263°
2026-05-06 14:03 54.61466 32.47492 31893 ft 436 kts 263°
2026-05-06 14:03 54.60695 32.37155 31887 ft 436 kts 263°
2026-05-06 14:04 54.59915 32.26821 31880 ft 436 kts 262°
2026-05-06 14:04 54.59125 32.16477 31878 ft 436 kts 262°
2026-05-06 14:05 54.58324 32.06099 31877 ft 436 kts 262°
2026-05-06 14:05 54.57517 31.95774 31882 ft 436 kts 262°
2026-05-06 14:06 54.56704 31.85479 31885 ft 436 kts 262°
2026-05-06 14:06 54.55882 31.75201 31884 ft 436 kts 261°
2026-05-06 14:07 54.55043 31.64821 31884 ft 436 kts 261°
2026-05-06 14:07 54.54204 31.54549 31886 ft 435 kts 261°
2026-05-06 14:08 54.53354 31.44248 31885 ft 435 kts 261°
2026-05-06 14:08 54.52497 31.33987 31885 ft 436 kts 261°
2026-05-06 14:09 54.51623 31.23635 31877 ft 435 kts 261°
2026-05-06 14:09 54.50721 31.13394 31878 ft 435 kts 259°
2026-05-06 14:10 54.49335 31.03309 31879 ft 435 kts 253°
2026-05-06 14:10 54.47498 30.93396 31883 ft 435 kts 251°
2026-05-06 14:11 54.45634 30.83520 31880 ft 435 kts 251°
2026-05-06 14:11 54.43768 30.73670 31878 ft 435 kts 251°
2026-05-06 14:12 54.41890 30.63806 31878 ft 434 kts 251°
2026-05-06 14:12 54.40003 30.53946 31873 ft 434 kts 251°
2026-05-06 14:13 54.38108 30.44099 31874 ft 434 kts 251°
2026-05-06 14:13 54.36217 30.34308 31281 ft 437 kts 250°
2026-05-06 14:14 54.35270 30.29428 30502 ft 437 kts 250°
2026-05-06 14:14 54.34304 30.24463 29680 ft 436 kts 250°
2026-05-06 14:14 54.33356 30.19602 28898 ft 434 kts 250°
2026-05-06 14:14 54.32399 30.14715 28103 ft 432 kts 250°
2026-05-06 14:15 54.31460 30.09922 27317 ft 430 kts 250°
2026-05-06 14:15 54.30510 30.05086 26508 ft 428 kts 250°
2026-05-06 14:15 54.29564 30.00285 25835 ft 422 kts 250°
2026-05-06 14:15 54.28648 29.95644 25352 ft 413 kts 250°
2026-05-06 14:16 54.27736 29.91030 24830 ft 405 kts 250°
2026-05-06 14:16 54.26850 29.86570 24316 ft 398 kts 250°
2026-05-06 14:16 54.25966 29.82127 23796 ft 391 kts 250°
2026-05-06 14:16 54.25107 29.77821 23293 ft 385 kts 250°
2026-05-06 14:17 54.24248 29.73523 22798 ft 379 kts 250°
2026-05-06 14:17 54.23401 29.69290 22304 ft 373 kts 250°
2026-05-06 14:17 54.22577 29.65182 21821 ft 368 kts 250°
2026-05-06 14:17 54.21751 29.61074 21332 ft 363 kts 250°
2026-05-06 14:18 54.20947 29.57082 20853 ft 358 kts 250°
2026-05-06 14:18 54.20140 29.53087 20373 ft 353 kts 250°
2026-05-06 14:18 54.19354 29.49204 19908 ft 348 kts 250°
2026-05-06 14:18 54.18565 29.45314 19428 ft 344 kts 250°
2026-05-06 14:19 54.17783 29.41472 18946 ft 340 kts 250°
2026-05-06 14:19 54.17019 29.37729 18474 ft 336 kts 250°
2026-05-06 14:19 54.16249 29.33974 18002 ft 333 kts 249°
2026-05-06 14:19 54.15497 29.30311 17516 ft 330 kts 249°
2026-05-06 14:20 54.14741 29.26634 17047 ft 327 kts 249°
2026-05-06 14:20 54.14032 29.23019 16570 ft 325 kts 251°
2026-05-06 14:20 54.13466 29.19297 16080 ft 323 kts 255°
2026-05-06 14:20 54.13068 29.15529 15608 ft 322 kts 259°
2026-05-06 14:21 54.12817 29.11791 15118 ft 321 kts 261°
2026-05-06 14:21 54.12591 29.08015 14657 ft 319 kts 261°
2026-05-06 14:21 54.12370 29.04315 14186 ft 317 kts 261°
2026-05-06 14:21 54.12147 29.00581 13693 ft 315 kts 261°
2026-05-06 14:22 54.11927 28.96926 13209 ft 313 kts 261°
2026-05-06 14:22 54.11702 28.93242 12747 ft 311 kts 261°
2026-05-06 14:22 54.11478 28.89582 12250 ft 309 kts 261°
2026-05-06 14:22 54.11260 28.85997 11780 ft 307 kts 261°
2026-05-06 14:23 54.11061 28.82438 11653 ft 292 kts 262°
2026-05-06 14:23 54.10885 28.79134 11663 ft 275 kts 262°
2026-05-06 14:23 54.10715 28.75985 11671 ft 258 kts 261°
2026-05-06 14:23 54.10557 28.73074 11681 ft 242 kts 261°
2026-05-06 14:24 54.10401 28.70252 11389 ft 238 kts 261°
2026-05-06 14:24 54.10241 28.67444 11084 ft 235 kts 261°
2026-05-06 14:24 54.10087 28.64746 10932 ft 230 kts 261°
2026-05-06 14:24 54.09931 28.62020 10756 ft 230 kts 261°
2026-05-06 14:25 54.09778 28.59340 10599 ft 230 kts 261°
2026-05-06 14:25 54.09623 28.56628 10439 ft 229 kts 261°
2026-05-06 14:25 54.09470 28.53964 10278 ft 228 kts 261°
2026-05-06 14:25 54.09316 28.51269 10141 ft 228 kts 261°
2026-05-06 14:26 54.09160 28.48580 10017 ft 227 kts 261°
2026-05-06 14:26 54.09008 28.45937 9886 ft 226 kts 261°
2026-05-06 14:26 54.08852 28.43253 9593 ft 228 kts 261°
2026-05-06 14:26 54.08699 28.40610 9248 ft 226 kts 261°
2026-05-06 14:27 54.08544 28.37946 8918 ft 225 kts 261°
2026-05-06 14:27 54.08392 28.35340 8614 ft 223 kts 261°
2026-05-06 14:27 54.08236 28.32702 8290 ft 222 kts 259°
2026-05-06 14:27 54.08081 28.30111 7977 ft 223 kts 260°
2026-05-06 14:28 54.07925 28.27484 7653 ft 222 kts 260°
2026-05-06 14:28 54.07769 28.24862 7354 ft 222 kts 259°
2026-05-06 14:28 54.07614 28.22277 7022 ft 222 kts 259°
2026-05-06 14:28 54.07457 28.19660 6701 ft 221 kts 259°
2026-05-06 14:29 54.07301 28.17085 6423 ft 221 kts 259°
2026-05-06 14:29 54.07142 28.14472 6109 ft 221 kts 259°
2026-05-06 14:29 54.06987 28.11911 5937 ft 220 kts 259°
2026-05-06 14:29 54.06828 28.09301 5842 ft 221 kts 259°
2026-05-06 14:30 54.06747 28.06671 5704 ft 225 kts 273°
2026-05-06 14:30 54.07399 28.04235 5476 ft 239 kts 307°
2026-05-06 14:30 54.08664 28.02347 5178 ft 242 kts 315°
2026-05-06 14:30 54.09945 28.00546 4872 ft 241 kts 315°
2026-05-06 14:31 54.11229 27.98703 4572 ft 240 kts 315°
2026-05-06 14:31 54.12482 27.96878 4274 ft 239 kts 315°
2026-05-06 14:31 54.13744 27.95026 3998 ft 237 kts 315°
2026-05-06 14:31 54.14963 27.93236 3981 ft 224 kts 314°
2026-05-06 14:32 54.16127 27.91519 4010 ft 224 kts 314°
2026-05-06 14:32 54.17310 27.89769 4019 ft 224 kts 314°
2026-05-06 14:32 54.18476 27.88043 4016 ft 224 kts 314°
2026-05-06 14:32 54.19649 27.86309 4062 ft 217 kts 314°
2026-05-06 14:33 54.20729 27.84722 4073 ft 198 kts 314°
2026-05-06 14:33 54.21722 27.83260 4047 ft 176 kts 313°
2026-05-06 14:33 54.22615 27.81941 4002 ft 165 kts 313°
2026-05-06 14:33 54.23473 27.80657 4013 ft 166 kts 312°
2026-05-06 14:34 54.24343 27.79354 4014 ft 165 kts 312°
2026-05-06 14:34 54.25202 27.78071 4012 ft 166 kts 312°
2026-05-06 14:34 54.26076 27.76770 4011 ft 166 kts 312°
2026-05-06 14:34 54.26936 27.75487 4014 ft 166 kts 313°
2026-05-06 14:35 54.27744 27.74087 4011 ft 162 kts 297°
2026-05-06 14:35 54.28148 27.72341 4014 ft 155 kts 271°
2026-05-06 14:35 54.28102 27.70579 4013 ft 147 kts 249°
2026-05-06 14:35 54.27671 27.69008 4023 ft 146 kts 229°
2026-05-06 14:36 54.27016 27.67681 4028 ft 149 kts 224°
2026-05-06 14:36 54.26319 27.66355 4019 ft 149 kts 224°
2026-05-06 14:36 54.25631 27.65045 4016 ft 150 kts 224°
2026-05-06 14:36 54.24935 27.63709 4014 ft 150 kts 225°
2026-05-06 14:37 54.24242 27.62370 4015 ft 150 kts 225°
2026-05-06 14:37 54.23560 27.61049 4013 ft 150 kts 225°
2026-05-06 14:37 54.22868 27.59707 4014 ft 150 kts 225°
2026-05-06 14:37 54.22149 27.58457 4007 ft 148 kts 213°
2026-05-06 14:38 54.21191 27.57816 4008 ft 150 kts 185°
2026-05-06 14:38 54.20177 27.58148 4011 ft 151 kts 165°
2026-05-06 14:38 54.19191 27.58765 4002 ft 150 kts 163°
2026-05-06 14:38 54.18216 27.59416 3999 ft 150 kts 162°
2026-05-06 14:39 54.17289 27.60192 3996 ft 150 kts 155°
2026-05-06 14:39 54.16410 27.61168 3998 ft 150 kts 149°
2026-05-06 14:39 54.15617 27.62293 3994 ft 150 kts 143°
2026-05-06 14:39 54.14859 27.63514 3990 ft 149 kts 143°
2026-05-06 14:40 54.14117 27.64713 3992 ft 148 kts 143°
2026-05-06 14:40 54.13359 27.65917 3993 ft 148 kts 144°
2026-05-06 14:40 54.12595 27.67108 3996 ft 148 kts 144°
2026-05-06 14:40 54.11837 27.68270 3997 ft 148 kts 145°
2026-05-06 14:41 54.11061 27.69442 3997 ft 148 kts 146°
2026-05-06 14:41 54.10290 27.70590 4006 ft 148 kts 146°
2026-05-06 14:41 54.09508 27.71748 4006 ft 148 kts 146°
2026-05-06 14:41 54.08735 27.72884 4001 ft 148 kts 146°
2026-05-06 14:42 54.07947 27.74037 3803 ft 149 kts 146°
2026-05-06 14:42 54.07161 27.75185 3579 ft 148 kts 146°
2026-05-06 14:42 54.06388 27.76312 3379 ft 148 kts 146°
2026-05-06 14:42 54.05608 27.77451 3181 ft 147 kts 145°
2026-05-06 14:43 54.04844 27.78569 3019 ft 146 kts 145°
2026-05-06 14:43 54.04071 27.79701 3004 ft 146 kts 146°
2026-05-06 14:43 54.03303 27.80825 2999 ft 147 kts 146°
2026-05-06 14:43 54.02521 27.81974 3006 ft 148 kts 145°
2026-05-06 14:44 54.01739 27.83124 2999 ft 148 kts 145°
2026-05-06 14:44 54.00970 27.84259 3000 ft 148 kts 145°
2026-05-06 14:44 54.00190 27.85410 3002 ft 148 kts 145°
2026-05-06 14:45 53.98635 27.87706 2950 ft 149 kts 145°
2026-05-06 14:45 53.97868 27.88840 2754 ft 147 kts 145°
2026-05-06 14:45 53.97098 27.89981 2568 ft 146 kts 146°
2026-05-06 14:45 53.96342 27.91100 2384 ft 145 kts 146°
2026-05-06 14:46 53.95578 27.92225 2203 ft 144 kts 145°
2026-05-06 14:46 53.94823 27.93353 2022 ft 144 kts 144°
2026-05-06 14:46 53.94083 27.94459 1835 ft 143 kts 145°
2026-05-06 14:46 53.93333 27.95570 1645 ft 143 kts 144°
2026-05-06 14:47 53.92585 27.96660 1452 ft 142 kts 147°
2026-05-06 14:47 53.91810 27.97799 1328 ft 159 kts 144°
2026-05-06 14:47 53.90939 27.99068 1184 ft 166 kts 143°
2026-05-06 14:47 53.90105 28.00330 873 ft 153 kts 143°
2026-05-06 14:48 53.89355 28.01441 680 ft 134 kts 143°
2026-05-06 14:48 53.88824 28.02208 674 ft 57 kts 139°
2026-05-06 14:48 53.88669 28.02444 674 ft 24 kts 139°
2026-05-06 14:48 53.88540 28.02633 674 ft 24 kts 138°
2026-05-06 14:49 53.88417 28.02816 674 ft 23 kts 139°
2026-05-06 14:49 53.88303 28.02988 673 ft 16 kts 135°
2026-05-06 14:49 53.88305 28.03132 673 ft 1 kts 44°
2026-05-06 14:49 53.88309 28.03140 673 ft 0 kts 47°
2026-05-06 14:50 53.88315 28.03150 673 ft 11 kts 48°
2026-05-06 14:50 53.88413 28.03347 673 ft 23 kts 49°
2026-05-06 14:51 53.88514 28.03481 673 ft 16 kts 347°
2026-05-06 14:51 53.88606 28.03370 673 ft 16 kts 317°
2026-05-06 14:51 53.88685 28.03304 673 ft 0 kts 57°
2026-05-06 14:51 53.88708 28.03346 673 ft 10 kts 47°
2026-05-06 14:52 53.88760 28.03435 673 ft 10 kts 33°
2026-05-06 14:52 53.88834 28.03433 673 ft 8 kts 345°
2026-05-06 14:52 53.88857 28.03422 673 ft 0 kts 345°